| time (UTC) | temp F | wind direction | speed MPH | gust MPH | rain 1hr in | rain 24hr in | rain mn in | humidity % | barometer mb |
| 20260506080158 | 75 | 85 | 9.0 | 15.0 | 0.00 | 0.00 | 0.00 | 84 | 1020.8 |
| 20260506073141 | 75 | 73 | 7.0 | 10.0 | 0.00 | 0.00 | 0.00 | 85 | 1020.6 |
| 20260506072638 | 75 | 74 | 12.0 | 15.0 | 0.00 | 0.00 | 0.00 | 85 | 1020.7 |
| 20260506072136 | 75 | 85 | 10.0 | 16.0 | 0.00 | 0.00 | 0.00 | 85 | 1020.7 |
| 20260506071633 | 75 | 110 | 6.0 | 14.0 | 0.00 | 0.00 | 0.00 | 85 | 1020.8 |
| 20260506071131 | 75 | 104 | 10.0 | 14.0 | 0.00 | 0.00 | 0.00 | 84 | 1020.7 |
| 20260506070627 | 75 | 84 | 8.0 | 13.0 | 0.00 | 0.00 | 0.00 | 84 | 1020.7 |
| 20260506070125 | 75 | 102 | 9.0 | 14.0 | 0.00 | 0.00 | 0.00 | 84 | 1021.0 |
| 20260506062103 | 76 | 69 | 6.0 | 17.0 | 0.00 | 0.00 | 0.00 | 82 | 1021.0 |
| 20260506061557 | 76 | 77 | 10.0 | 17.0 | 0.00 | 0.00 | 0.00 | 82 | 1021.0 |
| 20260506061055 | 76 | 48 | 9.0 | 14.0 | 0.00 | 0.00 | 0.00 | 82 | 1021.1 |
| 20260506060554 | 76 | 90 | 5.0 | 15.0 | 0.00 | 0.00 | 0.00 | 82 | 1021.1 |
| 20260506051022 | 76 | 141 | 10.0 | 13.0 | 0.00 | 0.00 | 0.00 | 85 | 1021.2 |
| 20260506050520 | 76 | 148 | 6.0 | 15.0 | 0.00 | 0.00 | 0.00 | 85 | 1021.4 |
| 20260506045011 | 76 | 98 | 9.0 | 16.0 | 0.00 | 0.00 | 0.00 | 85 | 1021.4 |
| 20260506044509 | 76 | 85 | 6.0 | 13.0 | 0.00 | 0.00 | 0.00 | 84 | 1021.5 |
| 20260506044005 | 76 | 72 | 8.0 | 14.0 | 0.00 | 0.00 | 0.00 | 84 | 1021.6 |
| 20260506043502 | 76 | 93 | 11.0 | 14.0 | 0.00 | 0.00 | 0.00 | 84 | 1021.5 |
| 20260506043000 | 76 | 79 | 4.0 | 14.0 | 0.00 | 0.00 | 0.00 | 84 | 1021.4 |
| 20260506042500 | 76 | 51 | 8.0 | 16.0 | 0.00 | 0.00 | 0.00 | 84 | 1021.6 |
| 20260506041957 | 76 | 350 | 5.0 | 14.0 | 0.00 | 0.00 | 0.00 | 84 | 1021.4 |
| 20260506041455 | 76 | 77 | 9.0 | 16.0 | 0.00 | 0.00 | 0.00 | 84 | 1021.6 |
| 20260506040952 | 76 | 77 | 9.0 | 16.0 | 0.00 | 0.00 | 0.00 | 83 | 1021.9 |
| 20260506040450 | 76 | 95 | 10.0 | 16.0 | 0.00 | 0.00 | 0.00 | 83 | 1021.6 |
| 20260506035946 | 76 | 71 | 8.0 | 13.0 | 0.00 | 0.00 | 0.00 | 83 | 1021.8 |
| 20260506035443 | 77 | 83 | 7.0 | 14.0 | 0.00 | 0.00 | 0.00 | 84 | 1021.8 |
| 20260506034939 | 77 | 53 | 7.0 | 13.0 | 0.00 | 0.00 | 0.00 | 84 | 1021.7 |
| 20260506034437 | 77 | 104 | 11.0 | 16.0 | 0.00 | 0.00 | 0.00 | 84 | 1021.8 |
| 20260506033934 | 77 | 72 | 8.0 | 10.0 | 0.00 | 0.00 | 0.00 | 84 | 1022.0 |
| 20260506033432 | 77 | 78 | 6.0 | 13.0 | 0.00 | 0.00 | 0.00 | 85 | 1021.9 |
| 20260506032928 | 77 | 76 | 11.0 | 14.0 | 0.00 | 0.00 | 0.00 | 85 | 1021.8 |
| 20260506032425 | 77 | 90 | 8.0 | 10.0 | 0.00 | 0.00 | 0.00 | 84 | 1021.8 |
| 20260506031921 | 77 | 35 | 5.0 | 13.0 | 0.00 | 0.00 | 0.00 | 85 | 1022.1 |
| 20260506031419 | 77 | 98 | 9.0 | 10.0 | 0.00 | 0.00 | 0.00 | 84 | 1021.9 |
| 20260506030916 | 77 | 87 | 8.0 | 10.0 | 0.00 | 0.00 | 0.00 | 84 | 1022.0 |
| 20260506030414 | 77 | 43 | 4.0 | 14.0 | 0.00 | 0.00 | 0.00 | 85 | 1022.0 |
| 20260506025911 | 77 | 127 | 4.0 | 14.0 | 0.00 | 0.00 | 0.00 | 85 | 1021.9 |
| 20260506025408 | 77 | 58 | 5.0 | 11.0 | 0.00 | 0.00 | 0.00 | 85 | 1022.1 |
| 20260506024905 | 77 | 95 | 9.0 | 14.0 | 0.00 | 0.00 | 0.00 | 85 | 1022.0 |
| 20260506024402 | 77 | 90 | 9.0 | 11.0 | 0.00 | 0.00 | 0.00 | 85 | 1022.1 |
| 20260506023857 | 77 | 137 | 4.0 | 11.0 | 0.00 | 0.00 | 0.00 | 85 | 1021.9 |
| 20260506023355 | 77 | 78 | 6.0 | 10.0 | 0.00 | 0.00 | 0.00 | 85 | 1021.8 |
| 20260506022851 | 77 | 69 | 10.0 | 11.0 | 0.00 | 0.00 | 0.00 | 85 | 1022.0 |
| 20260506022349 | 77 | 60 | 5.0 | 11.0 | 0.00 | 0.00 | 0.00 | 85 | 1021.9 |
| 20260506021847 | 77 | 57 | 6.0 | 10.0 | 0.00 | 0.00 | 0.00 | 85 | 1021.9 |
| 20260506021343 | 77 | 81 | 8.0 | 11.0 | 0.00 | 0.00 | 0.00 | 85 | 1021.9 |
| 20260506020840 | 77 | 113 | 4.0 | 11.0 | 0.00 | 0.00 | 0.00 | 85 | 1022.0 |
| 20260506020338 | 77 | 99 | 8.0 | 10.0 | 0.00 | 0.00 | 0.00 | 85 | 1022.0 |
| 20260506015835 | 77 | 91 | 9.0 | 10.0 | 0.00 | 0.00 | 0.00 | 85 | 1021.8 |
| 20260506015333 | 77 | 70 | 6.0 | 11.0 | 0.00 | 0.00 | 0.00 | 84 | 1022.0 |
| 20260506014829 | 77 | 97 | 6.0 | 10.0 | 0.00 | 0.00 | 0.00 | 84 | 1021.9 |
| 20260506014326 | 77 | 90 | 7.0 | 9.0 | 0.00 | 0.00 | 0.00 | 84 | 1022.0 |
| 20260506013823 | 77 | 106 | 4.0 | 9.0 | 0.00 | 0.00 | 0.00 | 84 | 1021.9 |
| 20260506013320 | 77 | 92 | 6.0 | 9.0 | 0.00 | 0.00 | 0.00 | 84 | 1021.8 |
| 20260506012817 | 77 | 92 | 6.0 | 11.0 | 0.00 | 0.00 | 0.00 | 84 | 1021.8 |
| 20260506012314 | 77 | 91 | 4.0 | 10.0 | 0.00 | 0.00 | 0.00 | 84 | 1021.7 |
| 20260506011811 | 77 | 79 | 6.0 | 9.0 | 0.00 | 0.00 | 0.00 | 84 | 1021.8 |
| 20260506011307 | 77 | 59 | 6.0 | 10.0 | 0.00 | 0.00 | 0.00 | 84 | 1021.7 |
| 20260506010805 | 77 | 76 | 6.0 | 10.0 | 0.00 | 0.00 | 0.00 | 84 | 1021.6 |
| 20260506010303 | 77 | 72 | 5.0 | 9.0 | 0.00 | 0.00 | 0.00 | 84 | 1021.6 |
| 20260506005800 | 77 | 95 | 7.0 | 10.0 | 0.00 | 0.00 | 0.00 | 84 | 1021.5 |
| 20260506005256 | 78 | 87 | 5.0 | 11.0 | 0.00 | 0.00 | 0.00 | 83 | 1021.8 |
| 20260506004752 | 78 | 326 | 2.0 | 7.0 | 0.00 | 0.00 | 0.00 | 83 | 1021.6 |
| 20260506004250 | 78 | 80 | 3.0 | 9.0 | 0.00 | 0.00 | 0.00 | 83 | 1021.6 |
| 20260506003746 | 78 | 238 | 6.0 | 9.0 | 0.00 | 0.00 | 0.00 | 83 | 1021.7 |
| 20260506003243 | 78 | 95 | 5.0 | 10.0 | 0.00 | 0.00 | 0.00 | 83 | 1021.6 |
| 20260506002739 | 78 | 156 | 8.0 | 13.0 | 0.00 | 0.00 | 0.00 | 83 | 1021.6 |
| 20260506002235 | 78 | 87 | 6.0 | 11.0 | 0.00 | 0.00 | 0.00 | 83 | 1021.6 |
| 20260506001731 | 78 | 75 | 6.0 | 10.0 | 0.00 | 0.00 | 0.00 | 83 | 1021.5 |
| 20260506001229 | 78 | 73 | 6.0 | 14.0 | 0.00 | 0.00 | 0.00 | 83 | 1021.6 |
| 20260506000725 | 78 | 93 | 9.0 | 10.0 | 0.00 | 0.00 | 0.00 | 83 | 1021.5 |
| 20260506000223 | 78 | 102 | 4.0 | 15.0 | 0.00 | 0.00 | 0.00 | 82 | 1021.3 |
| 20260505235720 | 78 | 145 | 6.0 | 15.0 | 0.00 | 0.00 | 0.00 | 82 | 1021.3 |
| 20260505235218 | 78 | 85 | 10.0 | 17.0 | 0.00 | 0.00 | 0.00 | 82 | 1021.5 |
| 20260505234714 | 78 | 115 | 10.0 | 11.0 | 0.00 | 0.00 | 0.00 | 83 | 1021.2 |
| 20260505234212 | 78 | 93 | 7.0 | 11.0 | 0.00 | 0.00 | 0.00 | 83 | 1021.3 |
| 20260505233708 | 78 | 104 | 6.0 | 10.0 | 0.00 | 0.00 | 0.00 | 82 | 1021.1 |
| 20260505233206 | 78 | 110 | 9.0 | 11.0 | 0.00 | 0.00 | 0.00 | 82 | 1021.2 |
| 20260505232703 | 78 | 111 | 4.0 | 15.0 | 0.00 | 0.00 | 0.00 | 82 | 1021.1 |
| 20260505232201 | 79 | 113 | 9.0 | 13.0 | 0.00 | 0.00 | 0.00 | 81 | 1021.0 |
| 20260505231657 | 78 | 106 | 11.0 | 13.0 | 0.00 | 0.00 | 0.00 | 81 | 1021.1 |
| 20260505231156 | 78 | 94 | 8.0 | 14.0 | 0.00 | 0.00 | 0.00 | 81 | 1021.0 |
| 20260505230654 | 79 | 94 | 10.0 | 17.0 | 0.00 | 0.00 | 0.00 | 81 | 1021.0 |
| 20260505230150 | 79 | 125 | 9.0 | 13.0 | 0.00 | 0.00 | 0.00 | 81 | 1020.9 |
| 20260505225646 | 79 | 89 | 10.0 | 11.0 | 0.00 | 0.00 | 0.00 | 81 | 1021.0 |
| 20260505225143 | 79 | 150 | 7.0 | 14.0 | 0.00 | 0.00 | 0.00 | 82 | 1021.0 |
| 20260505224639 | 79 | 82 | 8.0 | 15.0 | 0.00 | 0.00 | 0.00 | 82 | 1020.8 |
| 20260505224137 | 79 | 75 | 7.0 | 16.0 | 0.00 | 0.00 | 0.00 | 82 | 1020.8 |
| 20260505223634 | 79 | 99 | 13.0 | 17.0 | 0.00 | 0.00 | 0.00 | 82 | 1020.5 |
| 20260505223130 | 80 | 97 | 8.0 | 15.0 | 0.00 | 0.00 | 0.00 | 82 | 1020.5 |
| 20260505222626 | 80 | 82 | 13.0 | 19.0 | 0.00 | 0.00 | 0.00 | 81 | 1020.5 |
| 20260505222123 | 80 | 105 | 15.0 | 21.0 | 0.00 | 0.00 | 0.00 | 80 | 1020.5 |
| 20260505221620 | 80 | 125 | 11.0 | 19.0 | 0.00 | 0.00 | 0.00 | 80 | 1020.8 |
| 20260505221116 | 80 | 96 | 11.0 | 17.0 | 0.00 | 0.00 | 0.00 | 80 | 1020.6 |
| 20260505220614 | 80 | 116 | 12.0 | 15.0 | 0.00 | 0.00 | 0.00 | 80 | 1020.5 |
| 20260505220111 | 80 | 68 | 9.0 | 13.0 | 0.00 | 0.00 | 0.00 | 81 | 1020.7 |
| 20260505215609 | 80 | 110 | 9.0 | 17.0 | 0.00 | 0.00 | 0.00 | 80 | 1020.7 |
| 20260505215107 | 81 | 112 | 9.0 | 14.0 | 0.00 | 0.00 | 0.00 | 80 | 1020.6 |
| 20260505214605 | 80 | 157 | 11.0 | 19.0 | 0.00 | 0.00 | 0.00 | 80 | 1020.5 |
| 20260505214101 | 81 | 97 | 12.0 | 17.0 | 0.00 | 0.00 | 0.00 | 80 | 1020.6 |
| 20260505213559 | 81 | 73 | 11.0 | 17.0 | 0.00 | 0.00 | 0.00 | 79 | 1020.5 |
| 20260505213055 | 81 | 118 | 13.0 | 19.0 | 0.00 | 0.00 | 0.00 | 79 | 1020.4 |
| 20260505212551 | 81 | 90 | 6.0 | 11.0 | 0.00 | 0.00 | 0.00 | 80 | 1020.4 |
| 20260505212049 | 81 | 154 | 13.0 | 17.0 | 0.00 | 0.00 | 0.00 | 78 | 1020.5 |
| 20260505211546 | 81 | 105 | 9.0 | 16.0 | 0.00 | 0.00 | 0.00 | 79 | 1020.4 |
| 20260505211043 | 81 | 91 | 11.0 | 18.0 | 0.00 | 0.00 | 0.00 | 79 | 1020.3 |
| 20260505210539 | 81 | 130 | 12.0 | 18.0 | 0.00 | 0.00 | 0.00 | 79 | 1020.3 |
| 20260505210037 | 81 | 99 | 14.0 | 17.0 | 0.00 | 0.00 | 0.00 | 78 | 1020.2 |
| 20260505205535 | 81 | 92 | 15.0 | 18.0 | 0.00 | 0.00 | 0.00 | 78 | 1020.2 |
| 20260505205032 | 81 | 124 | 13.0 | 18.0 | 0.00 | 0.00 | 0.00 | 77 | 1020.1 |
| 20260505204529 | 81 | 80 | 9.0 | 19.0 | 0.00 | 0.00 | 0.00 | 77 | 1020.2 |
| 20260505204026 | 82 | 79 | 14.0 | 18.0 | 0.00 | 0.00 | 0.00 | 78 | 1019.9 |
| 20260505203523 | 82 | 93 | 12.0 | 16.0 | 0.00 | 0.00 | 0.00 | 77 | 1019.9 |
| 20260505203015 | 82 | 179 | 12.0 | 18.0 | 0.00 | 0.00 | 0.00 | 77 | 1020.2 |
| 20260505202511 | 82 | 156 | 11.0 | 21.0 | 0.00 | 0.00 | 0.00 | 76 | 1020.2 |
| 20260505202006 | 83 | 102 | 12.0 | 19.0 | 0.00 | 0.00 | 0.00 | 75 | 1020.1 |
| 20260505201503 | 83 | 133 | 12.0 | 19.0 | 0.00 | 0.00 | 0.00 | 75 | 1020.3 |
| 20260505201000 | 84 | 107 | 10.0 | 16.0 | 0.00 | 0.00 | 0.00 | 74 | 1020.2 |
| 20260505200458 | 84 | 77 | 9.0 | 15.0 | 0.00 | 0.00 | 0.00 | 74 | 1020.2 |
| 20260505195954 | 83 | 156 | 9.0 | 21.0 | 0.00 | 0.00 | 0.00 | 74 | 1020.2 |
| 20260505195452 | 84 | 101 | 9.0 | 16.0 | 0.00 | 0.00 | 0.00 | 73 | 1020.5 |
| 20260505194949 | 84 | 112 | 15.0 | 19.0 | 0.00 | 0.00 | 0.00 | 74 | 1020.3 |
| 20260505194446 | 84 | 82 | 11.0 | 17.0 | 0.00 | 0.00 | 0.00 | 73 | 1020.6 |
| 20260505193946 | 84 | 128 | 17.0 | 22.0 | 0.00 | 0.00 | 0.00 | 72 | 1020.6 |
| 20260505193443 | 84 | 113 | 10.0 | 16.0 | 0.00 | 0.00 | 0.00 | 72 | 1020.5 |
| 20260505192941 | 84 | 160 | 12.0 | 16.0 | 0.00 | 0.00 | 0.00 | 72 | 1020.5 |
| 20260505192439 | 84 | 181 | 11.0 | 16.0 | 0.00 | 0.00 | 0.00 | 71 | 1020.5 |
| 20260505191936 | 84 | 107 | 10.0 | 21.0 | 0.00 | 0.00 | 0.00 | 70 | 1020.7 |
| 20260505191435 | 84 | 113 | 11.0 | 19.0 | 0.00 | 0.00 | 0.00 | 71 | 1020.7 |
| 20260505190926 | 85 | 93 | 13.0 | 19.0 | 0.00 | 0.00 | 0.00 | 71 | 1020.7 |
| 20260505190421 | 85 | 157 | 9.0 | 17.0 | 0.00 | 0.00 | 0.00 | 69 | 1020.8 |
| 20260505185917 | 85 | 91 | 12.0 | 17.0 | 0.00 | 0.00 | 0.00 | 68 | 1020.7 |
| 20260505185415 | 85 | 165 | 12.0 | 19.0 | 0.00 | 0.00 | 0.00 | 70 | 1020.7 |
| 20260505184910 | 85 | 119 | 11.0 | 15.0 | 0.00 | 0.00 | 0.00 | 72 | 1020.8 |
| 20260505184407 | 84 | 83 | 11.0 | 19.0 | 0.00 | 0.00 | 0.00 | 72 | 1020.7 |
| 20260505183905 | 85 | 51 | 13.0 | 25.0 | 0.00 | 0.00 | 0.00 | 71 | 1020.8 |
| 20260505183401 | 85 | 144 | 14.0 | 15.0 | 0.00 | 0.00 | 0.00 | 70 | 1020.8 |
| 20260505182858 | 86 | 88 | 16.0 | 21.0 | 0.00 | 0.00 | 0.00 | 68 | 1020.8 |
| 20260505182355 | 86 | 57 | 6.0 | 13.0 | 0.00 | 0.00 | 0.00 | 70 | 1020.8 |
| 20260505181851 | 85 | 113 | 14.0 | 22.0 | 0.00 | 0.00 | 0.00 | 68 | 1021.2 |
| 20260505181348 | 86 | 89 | 19.0 | 22.0 | 0.00 | 0.00 | 0.00 | 67 | 1021.2 |
| 20260505180845 | 85 | 117 | 13.0 | 22.0 | 0.00 | 0.00 | 0.00 | 69 | 1021.2 |
| 20260505180341 | 86 | 97 | 14.0 | 21.0 | 0.00 | 0.00 | 0.00 | 68 | 1021.4 |
| 20260505175838 | 86 | 153 | 8.0 | 16.0 | 0.00 | 0.00 | 0.00 | 69 | 1021.3 |
| 20260505175334 | 86 | 149 | 13.0 | 19.0 | 0.00 | 0.00 | 0.00 | 70 | 1021.2 |
| 20260505174831 | 86 | 90 | 13.0 | 18.0 | 0.00 | 0.00 | 0.00 | 69 | 1021.4 |
| 20260505174328 | 85 | 134 | 9.0 | 18.0 | 0.00 | 0.00 | 0.00 | 72 | 1021.6 |
| 20260505173825 | 85 | 142 | 8.0 | 21.0 | 0.00 | 0.00 | 0.00 | 71 | 1021.6 |
| 20260505173321 | 86 | 124 | 14.0 | 19.0 | 0.00 | 0.00 | 0.00 | 71 | 1021.6 |
| 20260505172819 | 85 | 100 | 9.0 | 16.0 | 0.00 | 0.00 | 0.00 | 72 | 1021.5 |
| 20260505172316 | 86 | 111 | 10.0 | 14.0 | 0.00 | 0.00 | 0.00 | 72 | 1021.8 |
| 20260505171815 | 86 | 114 | 15.0 | 19.0 | 0.00 | 0.00 | 0.00 | 70 | 1022.0 |
| 20260505171312 | 86 | 72 | 15.0 | 19.0 | 0.00 | 0.00 | 0.00 | 69 | 1021.7 |
| 20260505170808 | 87 | 93 | 9.0 | 18.0 | 0.00 | 0.00 | 0.00 | 68 | 1021.8 |
| 20260505170306 | 87 | 126 | 15.0 | 25.0 | 0.00 | 0.00 | 0.00 | 67 | 1021.8 |
| 20260505165801 | 86 | 104 | 10.0 | 19.0 | 0.00 | 0.00 | 0.00 | 70 | 1021.8 |
| 20260505165257 | 87 | 106 | 10.0 | 18.0 | 0.00 | 0.00 | 0.00 | 70 | 1022.0 |
| 20260505164753 | 86 | 118 | 12.0 | 19.0 | 0.00 | 0.00 | 0.00 | 68 | 1022.1 |
| 20260505164250 | 86 | 153 | 13.0 | 21.0 | 0.00 | 0.00 | 0.00 | 70 | 1022.0 |
| 20260505163748 | 87 | 139 | 13.0 | 19.0 | 0.00 | 0.00 | 0.00 | 69 | 1022.0 |
| 20260505163247 | 86 | 122 | 15.0 | 22.0 | 0.00 | 0.00 | 0.00 | 70 | 1022.0 |
| 20260505162743 | 85 | 187 | 12.0 | 17.0 | 0.00 | 0.00 | 0.00 | 71 | 1021.9 |
| 20260505162240 | 86 | 90 | 14.0 | 18.0 | 0.00 | 0.00 | 0.00 | 70 | 1021.9 |
| 20260505161737 | 86 | 123 | 10.0 | 18.0 | 0.00 | 0.00 | 0.00 | 69 | 1022.0 |
| 20260505161235 | 86 | 108 | 11.0 | 22.0 | 0.00 | 0.00 | 0.00 | 70 | 1022.0 |
| 20260505160732 | 86 | 103 | 14.0 | 22.0 | 0.00 | 0.00 | 0.00 | 69 | 1021.9 |
| 20260505160230 | 86 | 123 | 13.0 | 21.0 | 0.00 | 0.00 | 0.00 | 70 | 1022.0 |
| 20260505153209 | 86 | 185 | 12.0 | 27.0 | 0.00 | 0.00 | 0.00 | 71 | 1021.5 |
| 20260505152706 | 86 | 89 | 14.0 | 23.0 | 0.00 | 0.00 | 0.00 | 69 | 1021.7 |
| 20260505152202 | 87 | 119 | 17.0 | 19.0 | 0.00 | 0.00 | 0.00 | 68 | 1021.7 |
| 20260505151657 | 86 | 137 | 14.0 | 19.0 | 0.00 | 0.00 | 0.00 | 70 | 1021.6 |
| 20260505151155 | 85 | 103 | 11.0 | 21.0 | 0.00 | 0.00 | 0.00 | 72 | 1022.0 |
| 20260505150650 | 86 | 187 | 14.0 | 25.0 | 0.00 | 0.00 | 0.00 | 70 | 1021.9 |
| 20260505150148 | 86 | 141 | 13.0 | 22.0 | 0.00 | 0.00 | 0.00 | 71 | 1021.7 |
| 20260505140616 | 85 | 88 | 11.0 | 22.0 | 0.00 | 0.00 | 0.00 | 73 | 1021.7 |
| 20260505140113 | 84 | 174 | 10.0 | 19.0 | 0.00 | 0.00 | 0.00 | 75 | 1021.6 |
| 20260505125030 | 84 | 104 | 16.0 | 19.0 | 0.00 | 0.00 | 0.00 | 73 | 1021.1 |
| 20260505124526 | 82 | 168 | 15.0 | 21.0 | 0.00 | 0.00 | 0.00 | 78 | 1021.0 |
| 20260505124023 | 82 | 119 | 12.0 | 23.0 | 0.00 | 0.00 | 0.00 | 76 | 1021.2 |
| 20260505123519 | 83 | 116 | 11.0 | 18.0 | 0.00 | 0.00 | 0.00 | 75 | 1021.2 |
| 20260505123015 | 84 | 95 | 15.0 | 18.0 | 0.00 | 0.00 | 0.00 | 74 | 1021.1 |
| 20260505122513 | 81 | 94 | 10.0 | 17.0 | 0.00 | 0.00 | 0.00 | 80 | 1021.0 |
| 20260505122009 | 80 | 114 | 9.0 | 14.0 | 0.00 | 0.00 | 0.00 | 80 | 1021.1 |
| 20260505121506 | 80 | 163 | 6.0 | 13.0 | 0.00 | 0.00 | 0.00 | 79 | 1021.2 |
| 20260505121002 | 82 | 125 | 10.0 | 19.0 | 0.00 | 0.00 | 0.00 | 77 | 1021.0 |
| 20260505120459 | 81 | 95 | 9.0 | 15.0 | 0.00 | 0.00 | 0.00 | 77 | 1021.0 |
| 20260505115958 | 81 | 126 | 10.0 | 16.0 | 0.00 | 0.00 | 0.00 | 77 | 1020.8 |
| 20260505115454 | 82 | 133 | 8.0 | 17.0 | 0.00 | 0.00 | 0.00 | 77 | 1020.9 |
| 20260505114953 | 81 | 110 | 9.0 | 14.0 | 0.00 | 0.00 | 0.00 | 78 | 1020.8 |
| 20260505114448 | 79 | 141 | 8.0 | 14.0 | 0.00 | 0.00 | 0.00 | 81 | 1020.8 |
| 20260505113945 | 80 | 143 | 11.0 | 15.0 | 0.00 | 0.00 | 0.00 | 79 | 1020.6 |
| 20260505113441 | 79 | 46 | 5.0 | 18.0 | 0.00 | 0.00 | 0.00 | 80 | 1020.4 |
| 20260505112937 | 80 | 107 | 11.0 | 15.0 | 0.00 | 0.00 | 0.00 | 78 | 1020.5 |
| 20260505112435 | 80 | 134 | 9.0 | 15.0 | 0.00 | 0.00 | 0.00 | 79 | 1020.5 |
| 20260505111931 | 79 | 72 | 13.0 | 16.0 | 0.00 | 0.00 | 0.00 | 81 | 1020.6 |
| 20260505111426 | 79 | 82 | 11.0 | 15.0 | 0.00 | 0.00 | 0.00 | 81 | 1020.7 |
| 20260505110923 | 79 | 88 | 12.0 | 15.0 | 0.00 | 0.00 | 0.00 | 82 | 1020.6 |
| 20260505110419 | 78 | 112 | 7.0 | 10.0 | 0.00 | 0.00 | 0.00 | 83 | 1020.3 |
| 20260505101850 | 76 | 85 | 11.0 | 15.0 | 0.00 | 0.00 | 0.00 | 87 | 1019.9 |
| 20260505101345 | 76 | 85 | 6.0 | 14.0 | 0.00 | 0.00 | 0.00 | 87 | 1019.9 |
| 20260505100841 | 76 | 75 | 9.0 | 14.0 | 0.00 | 0.00 | 0.00 | 87 | 1019.9 |
| 20260505100338 | 76 | 87 | 6.0 | 10.0 | 0.00 | 0.00 | 0.00 | 87 | 1019.8 |
| 20260505095833 | 76 | 69 | 7.0 | 13.0 | 0.00 | 0.00 | 0.00 | 87 | 1019.8 |
| 20260505095331 | 76 | 97 | 5.0 | 14.0 | 0.00 | 0.00 | 0.00 | 87 | 1019.8 |
| 20260505094827 | 76 | 75 | 6.0 | 15.0 | 0.00 | 0.00 | 0.00 | 86 | 1019.6 |
| 20260505094324 | 76 | 93 | 6.0 | 14.0 | 0.00 | 0.00 | 0.00 | 87 | 1019.7 |
| 20260505093819 | 76 | 107 | 6.0 | 13.0 | 0.00 | 0.00 | 0.00 | 86 | 1019.6 |
| 20260505093318 | 76 | 95 | 11.0 | 16.0 | 0.00 | 0.00 | 0.00 | 86 | 1019.5 |
| 20260505092814 | 76 | 77 | 5.0 | 14.0 | 0.00 | 0.00 | 0.00 | 86 | 1019.6 |
| 20260505092313 | 76 | 91 | 6.0 | 11.0 | 0.00 | 0.00 | 0.00 | 86 | 1019.6 |
| 20260505091810 | 76 | 52 | 5.0 | 11.0 | 0.00 | 0.00 | 0.00 | 86 | 1019.5 |
| 20260505091308 | 76 | 67 | 11.0 | 13.0 | 0.00 | 0.00 | 0.00 | 86 | 1019.5 |
| 20260505090805 | 76 | 90 | 9.0 | 13.0 | 0.00 | 0.00 | 0.00 | 86 | 1019.4 |
| 20260505090303 | 76 | 73 | 7.0 | 17.0 | 0.00 | 0.00 | 0.00 | 86 | 1019.6 |
| 20260505085800 | 76 | 85 | 9.0 | 10.0 | 0.00 | 0.00 | 0.00 | 85 | 1019.4 |
| 20260505085258 | 76 | 97 | 10.0 | 16.0 | 0.00 | 0.00 | 0.00 | 86 | 1019.4 |
| 20260505084750 | 76 | 51 | 9.0 | 15.0 | 0.00 | 0.00 | 0.00 | 86 | 1019.3 |
| 20260505084249 | 76 | 54 | 6.0 | 16.0 | 0.00 | 0.00 | 0.00 | 86 | 1019.6 |
| 20260505083745 | 76 | 71 | 10.0 | 15.0 | 0.00 | 0.00 | 0.00 | 85 | 1019.3 |
| 20260505083242 | 76 | 77 | 11.0 | 15.0 | 0.00 | 0.00 | 0.00 | 85 | 1019.4 |
| 20260505082739 | 76 | 88 | 12.0 | 16.0 | 0.00 | 0.00 | 0.00 | 85 | 1019.3 |
| 20260505082236 | 76 | 102 | 8.0 | 13.0 | 0.00 | 0.00 | 0.00 | 85 | 1019.1 |
| 20260505081732 | 76 | 74 | 9.0 | 11.0 | 0.00 | 0.00 | 0.00 | 85 | 1019.3 |
| 20260505081229 | 76 | 73 | 12.0 | 14.0 | 0.00 | 0.00 | 0.00 | 86 | 1019.3 |
| 20260505080726 | 76 | 84 | 6.0 | 14.0 | 0.00 | 0.00 | 0.00 | 85 | 1019.5 |